Location: *
(37.5724°S, 58.0067°E)
Time: 10:59:37
(UTC+00:00)

USA 229 DEB - Pass Details

Date: 02 December 2021
Orbit: 943 x 1269 km, 63.4° (Epoch: 14 January)

Event Time Altitude Azimuth Distance (km) Brightness Sun altitude
Rises 18:26:31 0° 300° (WNW) 4,207 6.8 -26.6°
Reaches altitude 10° 18:29:39 10° 291° (WNW) 3,223 6.2 -26.9°
Maximum altitude 18:36:41 36° 227° (SW) 1,829 5.3 -27.4°
Drops below altitude 10° 18:43:24 10° 162° (SSE) 3,064 6.7 -27.9°
Sets 18:46:20 0° 153° (SSE) 3,977 7.3 -28.0°
